Pagrindinis puslapis
METAR-TAF:

METAR-TAF

Oro uostai :

Wainwright, Aliaska, Jungtinės Amerikos Valstijos

platuma: 70-38N, ilguma: 159-51W, Aukštis: 12 m

Dabartinis oras

Ataskaita buvo paskelbta 1 valandą ir 41 minutes, ne 15:53 UTC
Vėjas 9 kt iš Pietvakarių
Temperatūra -24°C
Drėgmė 76%
Slėgis 1012 hPa
Giedras dangus

METAR: PAWI 071553Z AUTO 22009KT CLR M24/M27 A2989 RMK UPB04E21 SLP122 T12441272 TSNO PNO $ VIA AUTODIAL

Laikas: 09:34 (17:34 UTC)


TAF: trūkstamas

Orai ataskaitas ir orų prognozės (METAR, TAF).

turimą stotys yra geltonos ir raudonos taškus žemėlapyje.

Perkelti pele per norėdami pamatyti stoties vardą.

Tada spustelėkite, norėdami matyti oro stebėjimo ir prognozės.

Norėdami pakeisti žemėlapį: spustelėkite ant žalios mygtukų su juodo kryžiaus žemyn,; žalią mygtuką su brūkšneliu, jei norite nutolinti; arba žalių rodyklių gretimoms žemėlapius.


METAR-TAF: